Location: Unspecified
(42.9300°N, 71.1866°W)
Time: 05:16:11
(UTC-04:00)

Genesis I - Visible Passes

Search period start: 25 May 2015 00:00
Search period end: 04 June 2015 00:00
Orbit: 488 x 559 km, 64.5° (Epoch: 25 May)

Date Brightness Start Highest point End Pass type
(mag) Time Alt. Az. Time Alt. Az. Time Alt. Az.
25 May 5.5 00:25:46 17° ENE 00:25:46 17° ENE 00:27:06 10° ENE visible
25 May 4.5 02:00:53 32° WNW 02:01:24 33° NW 02:05:11 10° NNE visible
26 May 5.5 00:12:29 18° ENE 00:12:29 18° ENE 00:13:53 10° NE visible
26 May 4.7 01:47:36 30° WNW 01:48:09 31° NW 01:51:52 10° NNE visible
26 May 5.4 23:59:08 19° ENE 23:59:08 19° ENE 00:00:40 10° NE visible
27 May 4.8 01:34:15 28° WNW 01:34:53 29° NW 01:38:33 10° NNE visible
27 May 5.2 23:45:43 21° ENE 23:45:43 21° ENE 23:47:26 10° NE visible
28 May 4.9 01:20:49 26° WNW 01:21:37 28° NW 01:25:13 10° NNE visible
28 May 5.0 23:32:13 23° ENE 23:32:13 23° ENE 23:34:12 10° NE visible
29 May 5.1 01:07:19 23° WNW 01:08:22 26° NW 01:11:52 10° NNE visible
29 May 4.7 23:18:37 27° ENE 23:18:37 27° ENE 23:20:57 10° NE visible
30 May 5.3 00:53:42 21° WNW 00:55:05 25° NW 00:58:31 10° NNE visible
30 May 4.3 23:04:53 34° ENE 23:04:53 34° ENE 23:07:41 10° NE visible
31 May 5.5 00:39:57 17° W 00:41:50 23° NW 00:45:10 10° N visible
31 May 3.8 22:50:58 43° E 22:50:58 43° E 22:54:25 10° NE visible
01 Jun 5.6 00:26:02 13° W 00:28:33 22° NW 00:31:48 10° N visible
01 Jun 3.5 22:36:48 48° SE 22:37:07 49° ESE 22:41:08 10° NE visible
02 Jun 5.8 00:12:07 10° W 00:15:17 21° NW 00:18:26 10° N visible
02 Jun 3.4 22:22:14 32° S 22:23:48 54° ESE 22:27:51 10° NE visible
02 Jun 5.9 23:58:56 10° W 00:02:01 20° NW 00:05:04 10° N visible
03 Jun 3.3 22:06:58 13° SSW 22:10:29 58° ESE 22:14:34 10° NE visible
03 Jun 6.0 23:45:46 10° W 23:48:44 19° NW 23:51:41 10° N visible
